This is the latest recevied weather packets stored in our database for station/object IZ1UQG-N2. If no packets are shown the sender has not sent any weather packets the latest 10 day(s).
| Time | Temp. | Humidity | Pressure | Rain* | Wind** | Luminosity | Snow |
|---|---|---|---|---|---|---|---|
| 1787451582 | 17.78° C | 71% | 1016.6 hPa | 9.14 mm | - | 0 W/m² | - |
| 1787451522 | 18.33° C | 71% | 1016.4 hPa | 9.14 mm | - | 0 W/m² | - |
| 1787451282 | 18.33° C | 71% | 1016.4 hPa | 9.14 mm | - | 0 W/m² | - |
| 1787451222 | 18.33° C | 71% | 1016.4 hPa | 9.14 mm | - | 0 W/m² | - |
| 1787451162 | 18.33° C | 71% | 1016.5 hPa | 9.14 mm | - | 0 W/m² | - |
| 1787450921 | 18.33° C | 71% | 1016.5 hPa | 9.14 mm | - | 0 W/m² | - |
| 1787450861 | 18.33° C | 71% | 1016.5 hPa | 9.14 mm | - | 0 W/m² | - |
| 1787450801 | 18.33° C | 70% | 1016.4 hPa | 9.14 mm | - | 0 W/m² | - |
| 1787450502 | 18.33° C | 67% | 1016.4 hPa | 0 mm | - | 0 W/m² | - |
| 1787450442 | 18.33° C | 67% | 1016.4 hPa | 0 mm | - | 0 W/m² | - |
| 1787450382 | 18.33° C | 66% | 1016.3 hPa | 0 mm | - | 0 W/m² | - |
| 1787450141 | 18.33° C | 66% | 1016.3 hPa | 0 mm | - | 0 W/m² | - |
| 1787450081 | 18.33° C | 66% | 1016.3 hPa | 0 mm | - | 0 W/m² | - |
| 1787450022 | 18.33° C | 68% | 1016.3 hPa | 0 mm | - | 0 W/m² | - |
| 1787449722 | 18.33° C | 68% | 1016.3 hPa | 0 mm | - | 0 W/m² | - |
| 1787449662 | 18.33° C | 68% | 1016.3 hPa | 0 mm | - | 0 W/m² | - |
| 1787449601 | 18.33° C | 66% | 1016.3 hPa | 0 mm | - | 0 W/m² | - |
| 1787449241 | 18.33° C | 66% | 1016.3 hPa | 0 mm | - | 0 W/m² | - |
| 1787449181 | 18.33° C | 66% | 1016.3 hPa | 0 mm | - | 0 W/m² | - |
| 1787449122 | 18.33° C | 68% | 1016.2 hPa | 0 mm | - | 0 W/m² | - |
| 1787448942 | 18.33° C | 68% | 1016.3 hPa | 0 mm | - | 0 W/m² | - |
| 1787448882 | 18.33° C | 68% | 1016.3 hPa | 0 mm | - | 0 W/m² | - |
| 1787448821 | 18.33° C | 68% | 1016.3 hPa | 0 mm | - | 0 W/m² | - |
| 1787448641 | 18.33° C | 69% | 1016.1 hPa | 0 mm | - | 0 W/m² | - |
| 1787448583 | 18.33° C | 69% | 1016.1 hPa | 0 mm | - | 0 W/m² | - |
* Rain latest hour (hover to see other rain measurements)
** Current wind speed in m/s (hover to see current wind gust speed)